Location: Czu?�w
(50.1404°N, 18.9919°E)
Time: 02:02:31
(UTC+00:00)

Cosmos 1553 Rocket - Pass Details

Date: 27 October 2020
Orbit: 940 x 1009 km, 82.9° (Epoch: 27 November)

Event Time Altitude Azimuth Distance (km) Brightness Sun altitude
Rises 16:52:06 0° 176° (S) 3,714 7.0 -13.9°
Reaches altitude 10° 16:54:39 10° 173° (S) 2,762 6.3 -14.3°
Maximum altitude 17:00:54 63° 94° (E) 1,097 4.0 -15.3°
Drops below altitude 10° 17:07:05 10° 15° (NNE) 2,736 6.2 -16.3°
Sets 17:09:36 0° 12° (NNE) 3,678 6.9 -16.7°
